Weather History for Vero Beach, FL

Change the Weather History Date:

Friday, September 16, 2011

  Actual Average Record
Temperature  
Mean Temperature 80 °F 81 °F  
Max Temperature 90 °F 88 °F 94 °F (1990)
Min Temperature 69 °F 74 °F 66 °F (1967)
Degree Days  
Heating Degree Days 0 0  
Month to date heating degree days 0 0  
Since 1 July heating degree days 0 0  
Cooling Degree Days 15 16  
Month to date cooling degree days 256 256  
Year to date cooling degree days 2809 2554  
Growing Degree Days 29 (Base 50)    
Moisture  
Dew Point 69 °F    
Average Humidity 70    
Maximum Humidity 93    
Minimum Humidity 47    
Precipitation  
Precipitation 0.00 in 0.23 in 7.12 in (1944)
Month to date precipitation 7.13 3.60  
Year to date precipitation 35.50 38.30  
Sea Level Pressure  
Sea Level Pressure 30.05 in    
Wind  
Wind Speed 5 mph (ENE)    
Max Wind Speed 12 mph    
Max Gust Speed 15 mph    
Visibility 10 miles    
Events      
T = Trace of Precipitation, MM = Missing Value Source: NWS Daily Summary

Daily Weather History Graph

Daily Weather History Graph

Search for Another Location

Airport:

Trip Planner

Search our weather history database for the weather conditions in past years. The results will help you decide how hot, cold, wet, or windy it might be!

Date:

Astronomy

Sep. 16, 2011 Rise Set
Actual Time 7:07 AM EDT 7:25 PM EDT
Civil Twilight 6:43 AM EDT 7:48 PM EDT
Nautical Twilight 6:16 AM EDT 8:16 PM EDT
Astronomical Twilight 5:48 AM EDT 8:43 PM EDT
Moon 9:44 PM EDT (9/16) 10:42 AM EDT (9/16)
Length of Visible Light 13h 05m
Length of Day
12h 18m
Waning Gibbous, 84% of the Moon is Illuminated
Sep 16
Waning Gibbous
Sep 20
Last Quarter
Sep 27
New
Oct 3
First Quarter
Oct 11
Full

Hourly Weather History & Observations

Time (EDT) Temp. Heat Index Dew Point Humidity Pressure Visibility Wind Dir Wind Speed Gust Speed Precip Events Conditions
12:53 AM 72.0 °F - 68.0 °F 87% 30.01 in 10.0 mi Calm Calm - N/A   Clear
1:53 AM 72.0 °F - 69.1 °F 91% 30.01 in 10.0 mi Calm Calm - N/A   Clear
2:53 AM 73.0 °F - 70.0 °F 90% 30.01 in 10.0 mi Calm Calm - N/A   Clear
3:53 AM 72.0 °F - 69.1 °F 91% 30.01 in 10.0 mi WNW 4.6 mph - N/A   Clear
4:53 AM 72.0 °F - 69.1 °F 91% 30.01 in 10.0 mi Calm Calm - N/A   Clear
5:53 AM 71.1 °F - 68.0 °F 90% 30.02 in 10.0 mi Calm Calm - N/A   Clear
6:53 AM 69.1 °F - 66.9 °F 93% 30.04 in 10.0 mi Calm Calm - N/A   Clear
7:53 AM 72.0 °F - 68.0 °F 87% 30.05 in 10.0 mi Calm Calm - N/A   Clear
8:53 AM 78.1 °F - 71.1 °F 79% 30.07 in 10.0 mi West 3.5 mph - N/A   Clear
9:53 AM 82.0 °F 86.3 °F 71.1 °F 69% 30.08 in 10.0 mi Calm Calm - N/A   Clear
10:53 AM 86.0 °F 90.1 °F 69.1 °F 57% 30.09 in 10.0 mi Calm Calm - N/A   Clear
11:53 AM 88.0 °F 91.4 °F 68.0 °F 51% 30.09 in 10.0 mi NNW 5.8 mph - N/A   Clear
12:53 PM 87.1 °F 91.3 °F 69.1 °F 55% 30.09 in 10.0 mi NE 8.1 mph - N/A   Clear
1:53 PM 89.1 °F 91.3 °F 66.0 °F 46% 30.07 in 10.0 mi ENE 8.1 mph - N/A   Clear
2:53 PM 87.1 °F 90.6 °F 68.0 °F 53% 30.05 in 10.0 mi East 6.9 mph - N/A   Clear
3:53 PM 87.1 °F 90.6 °F 68.0 °F 53% 30.04 in 10.0 mi NE 9.2 mph - N/A   Clear
4:53 PM 86.0 °F 91.5 °F 71.1 °F 61% 30.04 in 10.0 mi ENE 10.4 mph - N/A   Clear
5:53 PM 84.2 °F 89.6 °F 71.6 °F 66% 30.05 in 10.0 mi ENE 9.2 mph - N/A   Clear
6:53 PM 82.9 °F 87.5 °F 71.1 °F 67% 30.04 in 10.0 mi ENE 6.9 mph - N/A   Clear
7:53 PM 81.0 °F 85.2 °F 72.0 °F 74% 30.05 in 10.0 mi East 5.8 mph - N/A   Partly Cloudy
8:53 PM 81.0 °F 84.4 °F 70.0 °F 69% 30.06 in 10.0 mi East 8.1 mph - N/A   Clear
9:53 PM 80.1 °F 83.2 °F 70.0 °F 71% 30.08 in 10.0 mi East 5.8 mph - N/A   Partly Cloudy
10:53 PM 81.0 °F 84.4 °F 70.0 °F 69% 30.08 in 10.0 mi East 8.1 mph - N/A   Scattered Clouds
11:53 PM 79.0 °F - 70.0 °F 74% 30.08 in 10.0 mi East 6.9 mph - N/A   Clear